Location: Unspecified
(0.0000°N, 0.0000°E)
Time: 08:36:01
(UTC+00:00)

AO-40 - Visible Passes

Search period start: 29 January 2022 00:00
Search period end: 08 February 2022 00:00
Orbit: 961 x 58859 km, 8.2° (Epoch: 27 January)

Date Brightness Start Highest point End Pass type
(mag) Time Alt. Az. Time Alt. Az. Time Alt. Az.
29 Jan ? 16:26:32 10° E 22:43:37 70° E 00:18:55 10° E visible
30 Jan ? 20:48:52 10° W 22:04:46 26° W 00:38:56 10° W visible
31 Jan ? 15:12:24 10° W 19:44:47 83° N 02:21:56 10° W visible
01 Feb ? 14:46:34 10° E 21:20:41 87° N 05:04:03 10° ESE visible
02 Feb ? 16:17:54 10° E 22:15:17 66° E 23:50:17 10° E visible
03 Feb ? 20:16:35 10° W 21:37:12 30° W 00:34:12 10° W visible
04 Feb ? 14:44:32 10° W 19:38:27 84° N 02:13:03 10° W visible
05 Feb ? 14:39:20 10° E 21:11:57 87° N 04:36:21 10° ESE visible
06 Feb ? 16:09:24 10° E 21:46:59 61° E 23:21:32 10° E visible
